• In Hungary
  • List of Countries
  • For 7 days
  • Water Temperature
  • Satellite Maps
  • Weather Map
  • News
  • Weather Widgets
  • user-avatar
    Login

    Hourly Weather Lbovo

    Today, 20 August, Monday

    Time Temperature Precipitation Wind Pressure Humidity
    00:00 +17°C° 0 mm 3 mps 746 mmHg 96%
    01:00 +17°C° 0 mm 2 mps 746 mmHg 96%
    02:00 +16°C° 0 mm 2 mps 746 mmHg 96%
    03:00 +16°C° 0.1 mm 2 mps 746 mmHg 96%
    04:00 +16°C° 0.1 mm 2 mps 746 mmHg 95%
    05:00 +16°C° 0.1 mm 2 mps 746 mmHg 95%
    06:00 +17°C° 0 mm 3 mps 746 mmHg 92%
    07:00 +18°C° 0 mm 3 mps 746 mmHg 88%
    08:00 +19°C° 0 mm 3 mps 746 mmHg 84%
    09:00 +20°C° 0.2 mm 3 mps 746 mmHg 81%
    10:00 +20°C° 0.2 mm 4 mps 746 mmHg 78%
    11:00 +21°C° 0.2 mm 4 mps 746 mmHg 75%
    12:00 +21°C° 0.4 mm 3 mps 745 mmHg 77%
    13:00 +21°C° 0.4 mm 3 mps 745 mmHg 78%
    14:00 +21°C° 0.4 mm 3 mps 745 mmHg 80%
    15:00 +20°C° 0.6 mm 3 mps 745 mmHg 83%
    16:00 +20°C° 0.6 mm 2 mps 744 mmHg 86%
    17:00 +20°C° 0.6 mm 2 mps 744 mmHg 89%
    18:00 +19°C° 0.2 mm 2 mps 744 mmHg 91%
    19:00 +18°C° 0.2 mm 2 mps 743 mmHg 94%
    20:00 +18°C° 0.2 mm 2 mps 743 mmHg 96%
    21:00 +18°C° 0.1 mm 3 mps 743 mmHg 96%
    22:00 +17°C° 0.1 mm 3 mps 742 mmHg 96%
    23:00 +17°C° 0.1 mm 3 mps 742 mmHg 96%

    Tomorrow, 21 August, Tuesday

    Time Temperature Precipitation Wind Pressure Humidity
    00:00 +17°C° 0 mm 3 mps 741 mmHg 95%
    01:00 +17°C° 0 mm 4 mps 741 mmHg 95%
    02:00 +17°C° 0 mm 4 mps 740 mmHg 95%
    03:00 +17°C° 0 mm 4 mps 740 mmHg 95%
    04:00 +16°C° 0 mm 5 mps 739 mmHg 95%
    05:00 +16°C° 0 mm 5 mps 738 mmHg 95%
    06:00 +17°C° 0.2 mm 6 mps 738 mmHg 93%
    07:00 +17°C° 0.2 mm 6 mps 737 mmHg 92%
    08:00 +19°C° 0.2 mm 6 mps 737 mmHg 90%
    09:00 +19°C° 0.9 mm 6 mps 736 mmHg 89%
    10:00 +18°C° 0.9 mm 7 mps 736 mmHg 88%
    11:00 +18°C° 0.9 mm 7 mps 736 mmHg 87%
    12:00 +18°C° 0.3 mm 7 mps 736 mmHg 80%
    13:00 +18°C° 0.3 mm 7 mps 736 mmHg 74%
    14:00 +20°C° 0.3 mm 8 mps 737 mmHg 67%
    15:00 +18°C° 0 mm 7 mps 737 mmHg 66%
    16:00 +17°C° 0 mm 6 mps 738 mmHg 65%
    17:00 +16°C° 0 mm 5 mps 739 mmHg 64%
    18:00 +15°C° 0 mm 5 mps 739 mmHg 69%
    19:00 +14°C° 0 mm 4 mps 740 mmHg 74%
    20:00 +12°C° 0 mm 4 mps 740 mmHg 79%
    21:00 +12°C° 0 mm 4 mps 740 mmHg 81%
    22:00 +12°C° 0 mm 4 mps 741 mmHg 83%
    23:00 +12°C° 0 mm 4 mps 741 mmHg 86%

    Day after tomorrow, 22 August, Wednesday

    Time Temperature Precipitation Wind Pressure Humidity
    00:00 +11°C° 0 mm 4 mps 741 mmHg 87%
    01:00 +11°C° 0 mm 4 mps 741 mmHg 88%
    02:00 +9°C° 0 mm 5 mps 742 mmHg 89%
    03:00 +9°C° 0 mm 5 mps 742 mmHg 89%
    04:00 +10°C° 0 mm 4 mps 742 mmHg 89%
    05:00 +8°C° 0 mm 4 mps 743 mmHg 89%
    06:00 +10°C° 0 mm 5 mps 743 mmHg 82%
    07:00 +12°C° 0 mm 5 mps 744 mmHg 75%
    08:00 +13°C° 0 mm 6 mps 744 mmHg 69%
    09:00 +13°C° 0.1 mm 6 mps 745 mmHg 64%
    10:00 +14°C° 0.1 mm 6 mps 745 mmHg 60%
    11:00 +15°C° 0.1 mm 7 mps 745 mmHg 56%
    12:00 +15°C° 0.1 mm 7 mps 746 mmHg 55%
    13:00 +15°C° 0.1 mm 7 mps 746 mmHg 53%
    14:00 +16°C° 0.1 mm 7 mps 747 mmHg 52%
    15:00 +15°C° 0 mm 6 mps 747 mmHg 54%
    16:00 +15°C° 0 mm 5 mps 747 mmHg 57%
    17:00 +15°C° 0 mm 4 mps 748 mmHg 59%
    18:00 +14°C° 0 mm 4 mps 748 mmHg 60%
    19:00 +13°C° 0 mm 3 mps 749 mmHg 60%
    20:00 +12°C° 0 mm 3 mps 749 mmHg 60%
    21:00 +11°C° 0 mm 3 mps 750 mmHg 65%
    22:00 +10°C° 0 mm 3 mps 750 mmHg 69%
    23:00 +8°C° 0 mm 3 mps 750 mmHg 74%

    23 August, Thursday

    Time Temperature Precipitation Wind Pressure Humidity
    00:00 +8°C° 0 mm 3 mps 751 mmHg 75%
    01:00 +8°C° 0 mm 2 mps 751 mmHg 77%
    02:00 +7°C° 0 mm 2 mps 751 mmHg 79%
    03:00 +7°C° 0 mm 2 mps 751 mmHg 79%
    04:00 +7°C° 0 mm 2 mps 752 mmHg 80%
    05:00 +7°C° 0 mm 2 mps 752 mmHg 80%
    06:00 +9°C° 0 mm 3 mps 752 mmHg 75%
    07:00 +11°C° 0 mm 3 mps 752 mmHg 70%
    08:00 +13°C° 0 mm 3 mps 752 mmHg 65%
    09:00 +15°C° 0 mm 4 mps 752 mmHg 60%
    10:00 +17°C° 0 mm 4 mps 752 mmHg 56%
    11:00 +19°C° 0 mm 4 mps 751 mmHg 52%
    12:00 +19°C° 0 mm 4 mps 751 mmHg 51%
    13:00 +20°C° 0 mm 5 mps 751 mmHg 50%
    14:00 +20°C° 0 mm 5 mps 751 mmHg 50%
    15:00 +20°C° 0 mm 4 mps 751 mmHg 53%
    16:00 +20°C° 0 mm 4 mps 751 mmHg 57%
    17:00 +19°C° 0 mm 3 mps 750 mmHg 61%
    18:00 +17°C° 0 mm 3 mps 750 mmHg 66%
    19:00 +16°C° 0 mm 3 mps 751 mmHg 71%
    20:00 +13°C° 0 mm 3 mps 751 mmHg 76%
    21:00 +12°C° 0 mm 3 mps 751 mmHg 78%
    22:00 +12°C° 0 mm 3 mps 751 mmHg 80%
    23:00 +11°C° 0 mm 3 mps 751 mmHg 83%

    24 August, Friday

    Time Temperature Precipitation Wind Pressure Humidity
    00:00 +11°C° 0 mm 3 mps 751 mmHg 84%
    01:00 +10°C° 0 mm 2 mps 751 mmHg 86%
    02:00 +10°C° 0 mm 2 mps 751 mmHg 87%
    03:00 +10°C° 0 mm 2 mps 751 mmHg 88%
    04:00 +9°C° 0 mm 2 mps 751 mmHg 88%
    05:00 +9°C° 0 mm 2 mps 752 mmHg 89%
    06:00 +12°C° 0 mm 2 mps 752 mmHg 83%
    07:00 +13°C° 0 mm 3 mps 752 mmHg 77%
    08:00 +16°C° 0 mm 3 mps 752 mmHg 70%
    09:00 +18°C° 0 mm 3 mps 751 mmHg 65%
    10:00 +19°C° 0 mm 3 mps 751 mmHg 60%
    11:00 +21°C° 0 mm 4 mps 751 mmHg 54%
    12:00 +21°C° 0 mm 3 mps 751 mmHg 53%
    13:00 +22°C° 0 mm 3 mps 751 mmHg 52%
    14:00 +22°C° 0 mm 3 mps 751 mmHg 50%
    15:00 +22°C° 0 mm 3 mps 751 mmHg 55%
    16:00 +21°C° 0 mm 2 mps 751 mmHg 59%
    17:00 +21°C° 0 mm 2 mps 750 mmHg 63%
    18:00 +19°C° 0 mm 2 mps 750 mmHg 69%
    19:00 +17°C° 0 mm 2 mps 750 mmHg 74%
    20:00 +15°C° 0 mm 2 mps 750 mmHg 80%
    21:00 +14°C° 0 mm 2 mps 751 mmHg 82%
    22:00 +14°C° 0 mm 2 mps 751 mmHg 84%
    23:00 +13°C° 0 mm 2 mps 751 mmHg 86%

    25 August, Saturday

    Time Temperature Precipitation Wind Pressure Humidity
    00:00 +13°C° 0 mm 2 mps 751 mmHg 87%
    01:00 +12°C° 0 mm 2 mps 751 mmHg 88%
    02:00 +12°C° 0 mm 2 mps 751 mmHg 89%
    03:00 +12°C° 0 mm 2 mps 751 mmHg 90%
    04:00 +12°C° 0 mm 2 mps 751 mmHg 90%
    05:00 +10°C° 0 mm 2 mps 751 mmHg 90%
    06:00 +13°C° 0 mm 2 mps 751 mmHg 83%
    07:00 +15°C° 0 mm 2 mps 751 mmHg 76%
    08:00 +17°C° 0 mm 3 mps 751 mmHg 69%
    09:00 +19°C° 0 mm 3 mps 751 mmHg 63%
    10:00 +21°C° 0 mm 3 mps 751 mmHg 57%
    11:00 +22°C° 0 mm 4 mps 750 mmHg 51%
    12:00 +23°C° 0 mm 4 mps 750 mmHg 49%
    13:00 +23°C° 0 mm 4 mps 750 mmHg 48%
    14:00 +25°C° 0 mm 4 mps 750 mmHg 46%
    15:00 +24°C° 0 mm 3 mps 749 mmHg 51%
    16:00 +24°C° 0 mm 2 mps 749 mmHg 55%
    17:00 +23°C° 0 mm 2 mps 749 mmHg 59%
    18:00 +20°C° 0 mm 2 mps 749 mmHg 64%
    19:00 +18°C° 0 mm 2 mps 749 mmHg 69%
    20:00 +16°C° 0 mm 2 mps 748 mmHg 73%
    21:00 +15°C° 0 mm 2 mps 749 mmHg 75%
    22:00 +15°C° 0 mm 2 mps 749 mmHg 77%
    23:00 +14°C° 0 mm 2 mps 749 mmHg 78%
    Show more